SIA528 WSSS-VOMM

Flight info

Callsign SIA528
Flight time N/A
Altitude 38000
Route AROSO5B AROSO Y513 KALIL Y504 BILIK G582 PUGER P574 DUBTA/N0490F400 P574 GIRNA V6 AVMOR AVMOR2E
Aircraft B78X/H-SDE1E2E3GHIJ3J5M1P2RWXYZ/LB1D1

Departure

Time N/A
Airport Singapore Changi Airport (WSSS)

Arrival

Time 2026-05-09 13:16
Airport Chennai International Airport (VOMM)
Time Latitude Longitude Altitude Speed Heading
2026-05-09 12:47 12.20304 82.26273 39808 ft 496 kts 292°
2026-05-09 12:48 12.21672 82.23034 39809 ft 497 kts 292°
2026-05-09 12:48 12.24415 82.16553 39810 ft 497 kts 292°
2026-05-09 12:49 12.27154 82.10061 39810 ft 497 kts 292°
2026-05-09 12:49 12.29896 82.03566 39810 ft 497 kts 292°
2026-05-09 12:50 12.32627 81.97085 39809 ft 496 kts 292°
2026-05-09 12:50 12.35355 81.90609 39804 ft 496 kts 292°
2026-05-09 12:51 12.38080 81.84137 39801 ft 495 kts 292°
2026-05-09 12:51 12.40802 81.77665 39802 ft 495 kts 292°
2026-05-09 12:52 12.43523 81.71191 39801 ft 495 kts 292°
2026-05-09 12:52 12.46225 81.64758 39809 ft 495 kts 292°
2026-05-09 12:53 12.48946 81.58273 39808 ft 492 kts 292°
2026-05-09 12:53 12.51632 81.51867 39782 ft 492 kts 292°
2026-05-09 12:53 12.52976 81.48660 39425 ft 490 kts 292°
2026-05-09 12:54 12.54320 81.45451 38839 ft 491 kts 292°
2026-05-09 12:54 12.55665 81.42237 38179 ft 492 kts 292°
2026-05-09 12:54 12.57015 81.39013 37443 ft 494 kts 292°
2026-05-09 12:54 12.58370 81.35776 36699 ft 495 kts 291°
2026-05-09 12:55 12.59727 81.32530 35947 ft 497 kts 291°
2026-05-09 12:55 12.61091 81.29268 35186 ft 499 kts 291°
2026-05-09 12:55 12.62459 81.25993 34386 ft 502 kts 292°
2026-05-09 12:55 12.63838 81.22692 33468 ft 506 kts 292°
2026-05-09 12:56 12.65227 81.19367 32483 ft 510 kts 292°
2026-05-09 12:56 12.66621 81.16031 31705 ft 509 kts 291°
2026-05-09 12:56 12.68012 81.12696 30860 ft 509 kts 292°
2026-05-09 12:56 12.69403 81.09359 29986 ft 510 kts 292°
2026-05-09 12:57 12.70792 81.06028 29278 ft 505 kts 292°
2026-05-09 12:57 12.72155 81.02757 28980 ft 492 kts 292°
2026-05-09 12:57 12.73476 80.99590 28851 ft 476 kts 292°
2026-05-09 12:57 12.74753 80.96520 28714 ft 462 kts 292°
2026-05-09 12:58 12.75994 80.93540 28578 ft 448 kts 292°
2026-05-09 12:58 12.77198 80.90645 28439 ft 435 kts 292°
2026-05-09 12:58 12.78368 80.87832 28303 ft 423 kts 292°
2026-05-09 12:58 12.79502 80.85105 28174 ft 412 kts 292°
2026-05-09 12:59 12.80632 80.82430 27795 ft 408 kts 296°
2026-05-09 12:59 12.81945 80.79876 27378 ft 404 kts 296°
2026-05-09 12:59 12.83199 80.77298 26852 ft 404 kts 295°
2026-05-09 12:59 12.84454 80.74717 26319 ft 405 kts 296°
2026-05-09 13:00 12.85744 80.72150 25787 ft 404 kts 297°
2026-05-09 13:00 12.87021 80.69621 25269 ft 394 kts 297°
2026-05-09 13:00 12.88242 80.67166 24762 ft 384 kts 296°
2026-05-09 13:00 12.89452 80.64721 24266 ft 385 kts 297°
2026-05-09 13:01 12.90667 80.62279 23745 ft 380 kts 297°
2026-05-09 13:01 12.91851 80.59908 23235 ft 372 kts 297°
2026-05-09 13:01 12.93029 80.57542 22735 ft 372 kts 297°
2026-05-09 13:01 12.94202 80.55181 22243 ft 371 kts 297°
2026-05-09 13:02 12.95373 80.52825 21751 ft 370 kts 297°
2026-05-09 13:02 12.96542 80.50477 21264 ft 369 kts 297°
2026-05-09 13:02 12.97706 80.48135 20774 ft 368 kts 297°
2026-05-09 13:02 12.98867 80.45800 20295 ft 367 kts 297°
2026-05-09 13:03 13.00023 80.43471 19804 ft 366 kts 297°
2026-05-09 13:03 13.01174 80.41153 19316 ft 360 kts 297°
2026-05-09 13:03 13.02281 80.38925 18848 ft 341 kts 297°
2026-05-09 13:03 13.03331 80.36809 18415 ft 325 kts 297°
2026-05-09 13:04 13.04333 80.34790 17992 ft 311 kts 297°
2026-05-09 13:04 13.05292 80.32857 17625 ft 295 kts 297°
2026-05-09 13:04 13.06210 80.31008 17387 ft 296 kts 297°
2026-05-09 13:04 13.07168 80.29076 17013 ft 309 kts 297°
2026-05-09 13:05 13.08138 80.27117 16618 ft 307 kts 298°
2026-05-09 13:05 13.09099 80.25179 16045 ft 303 kts 298°
2026-05-09 13:05 13.10049 80.23260 15355 ft 301 kts 297°
2026-05-09 13:05 13.10659 80.21236 14692 ft 299 kts 273°
2026-05-09 13:06 13.10413 80.19144 14020 ft 297 kts 251°
2026-05-09 13:06 13.09706 80.17153 13299 ft 297 kts 251°
2026-05-09 13:06 13.09012 80.15166 12619 ft 295 kts 251°
2026-05-09 13:06 13.08309 80.13208 11969 ft 289 kts 250°
2026-05-09 13:07 13.07613 80.11280 11244 ft 287 kts 250°
2026-05-09 13:07 13.06922 80.09351 10716 ft 287 kts 250°
2026-05-09 13:07 13.06239 80.07439 10230 ft 284 kts 250°
2026-05-09 13:07 13.05569 80.05576 9663 ft 282 kts 249°
2026-05-09 13:08 13.04795 80.03739 9022 ft 280 kts 249°
2026-05-09 13:08 13.04131 80.01868 8407 ft 278 kts 251°
2026-05-09 13:08 13.03470 80.00017 7800 ft 275 kts 249°
2026-05-09 13:08 13.02769 79.98199 7192 ft 273 kts 248°
2026-05-09 13:09 13.02066 79.96400 6628 ft 271 kts 248°
2026-05-09 13:09 13.01382 79.94613 6029 ft 268 kts 248°
2026-05-09 13:09 13.00432 79.93003 5561 ft 261 kts 224°
2026-05-09 13:09 12.98979 79.92064 5257 ft 237 kts 197°
2026-05-09 13:10 12.97431 79.91863 4974 ft 214 kts 172°
2026-05-09 13:10 12.96065 79.92246 4672 ft 197 kts 151°
2026-05-09 13:10 12.94983 79.93052 4242 ft 190 kts 134°
2026-05-09 13:10 12.94018 79.93971 3818 ft 190 kts 134°
2026-05-09 13:11 12.93048 79.94881 3507 ft 188 kts 135°
2026-05-09 13:11 12.92121 79.95814 3195 ft 185 kts 126°
2026-05-09 13:11 12.91793 79.97047 2806 ft 183 kts 83°
2026-05-09 13:11 12.92127 79.98290 2519 ft 180 kts 72°
2026-05-09 13:12 12.92545 79.99500 2338 ft 180 kts 70°
2026-05-09 13:12 12.92980 80.00686 2341 ft 181 kts 70°
2026-05-09 13:12 12.93430 80.01887 2340 ft 177 kts 69°
2026-05-09 13:12 12.93863 80.03045 2339 ft 164 kts 69°
2026-05-09 13:13 12.94268 80.04128 2249 ft 163 kts 70°
2026-05-09 13:13 12.94665 80.05187 2052 ft 160 kts 70°
2026-05-09 13:13 12.95049 80.06235 1823 ft 152 kts 70°
2026-05-09 13:13 12.95431 80.07266 1657 ft 156 kts 69°
2026-05-09 13:14 12.95809 80.08260 1465 ft 152 kts 70°
2026-05-09 13:14 12.96167 80.09257 1237 ft 145 kts 71°
2026-05-09 13:16 12.98747 80.16192 56 ft 94 kts 68°
2026-05-09 13:16 12.98896 80.16578 55 ft 40 kts 69°
2026-05-09 13:16 12.98993 80.16837 53 ft 38 kts 69°
2026-05-09 13:16 12.99082 80.17074 56 ft 31 kts 70°
2026-05-09 13:17 12.99105 80.17192 51 ft 9 kts 126°
2026-05-09 13:17 12.99049 80.17216 53 ft 11 kts 160°
2026-05-09 13:17 12.98986 80.17238 57 ft 9 kts 166°
2026-05-09 13:17 12.98938 80.17224 53 ft 6 kts 234°
2026-05-09 13:18 12.98922 80.17179 54 ft 9 kts 250°
2026-05-09 13:18 12.98899 80.17112 55 ft 11 kts 249°
2026-05-09 13:18 12.98870 80.17037 55 ft 12 kts 249°
2026-05-09 13:18 12.98837 80.16951 57 ft 13 kts 249°
2026-05-09 13:19 12.98803 80.16859 54 ft 14 kts 250°
2026-05-09 13:19 12.98767 80.16760 58 ft 15 kts 247°
2026-05-09 13:19 12.98703 80.16739 55 ft 9 kts 166°
2026-05-09 13:19 12.98648 80.16759 54 ft 7 kts 159°
2026-05-09 13:20 12.98602 80.16767 55 ft 6 kts 194°
2026-05-09 13:20 12.98582 80.16741 56 ft 5 kts 243°
2026-05-09 13:20 12.98567 80.16704 54 ft 6 kts 248°
2026-05-09 13:20 12.98549 80.16655 57 ft 8 kts 249°
2026-05-09 13:21 12.98528 80.16597 54 ft 9 kts 250°
2026-05-09 13:21 12.98503 80.16529 57 ft 11 kts 250°
2026-05-09 13:21 12.98475 80.16451 57 ft 12 kts 250°
2026-05-09 13:21 12.98451 80.16385 57 ft 6 kts 249°
2026-05-09 13:22 12.98428 80.16370 56 ft 1 kts 194°
2026-05-09 13:22 12.98417 80.16372 58 ft 3 kts 171°
2026-05-09 13:22 12.98398 80.16380 52 ft 4 kts 160°
2026-05-09 13:23 12.98377 80.16388 55 ft 0 kts 160°